Location: Seasalter
(51.3333°N, 1.0167°E)
Time: 19:01:46
(UTC+00:00)

Cosmos 1428 Rocket - Pass Details

Date: 26 September 2023
Orbit: 947 x 987 km, 82.9° (Epoch: 08 December)

Event Time Altitude Azimuth Distance (km) Brightness Sun altitude
Exits shadow 02:16:58 79° 32° (NNE) 974 4.4 -30.8°
Drops below altitude 10° 02:22:44 10° 11° (N) 2,694 7.4 -30.1°
Sets 02:25:15 0° 11° (N) 3,649 8.3 -29.8°
